Istanbul, Turkey

12:54 AM +03 on April 22, 2018 (GMT +0300)
Ataturk

Weather History for LTBA - September, 2014

Change the Weather History Date:

Monday, September 1, 2014

  Actual Average Record
Temperature  
Mean Temperature 76 °F -  
Max Temperature 81 °F 74 °F 93 °F (2015)
Min Temperature 72 °F 61 °F 60 °F (1997)
Cooling Degree Days 12    
Growing Degree Days 26 (Base 50)    
Moisture  
Dew Point 64 °F    
Average Humidity 65    
Maximum Humidity 73    
Minimum Humidity 48    
Precipitation  
Precipitation 0.00 in - - ()
Sea Level Pressure  
Sea Level Pressure 29.81 in    
Wind  
Wind Speed 7 mph ()    
Max Wind Speed 14 mph    
Max Gust Speed -    
Visibility 6.2 miles    
Events      
Averages and records for this station are not official NWS values.
T = Trace of Precipitation, MM = Missing Value Source: Averaged Metar Reports

Daily Weather History Graph

Daily Weather History Graph

Search for Another Location

Airport or City:

Astronomy

Sep. 01, 2014 Rise Set
Actual Time 6:31 AM EEST 7:37 PM EEST
Civil Twilight 6:02 AM EEST 8:05 PM EEST
Nautical Twilight 5:29 AM EEST 8:39 PM EEST
Astronomical Twilight 4:53 AM EEST 9:14 PM EEST
Moon 1:00 PM EEST (9/1) 11:19 PM EEST (9/1)
Length of Visible Light 14h 02m
Length of Day
13h 06m
Waxing Crescent, 39% of the Moon is Illuminated
Sep 1
Waxing Crescent
Sep 2
First Quarter
Sep 9
Full
Sep 16
Last Quarter
Sep 24
New

Hourly Weather History & Observations

Time (EEST) Temp. Heat Index Dew Point Humidity Pressure Visibility Wind Dir Wind Speed Gust Speed Precip Events Conditions
12:00 AM 75 °F - 62 °F 56% 29.86 in 6 mi NNE 6.9 mph - -   Partly Cloudy
12:20 AM 75.2 °F - 62.6 °F 65% 29.86 in 6.2 mi NNE 9.2 mph - N/A   Scattered Clouds
12:50 AM 75.2 °F - 62.6 °F 65% 29.86 in 6.2 mi NNE 9.2 mph - N/A   Scattered Clouds
1:20 AM 75.2 °F - 62.6 °F 65% 29.83 in 6.2 mi NNE 6.9 mph - N/A   Scattered Clouds
1:50 AM 73.4 °F - 62.6 °F 69% 29.83 in 6.2 mi NNE 6.9 mph - N/A   Scattered Clouds
2:20 AM 73.4 °F - 62.6 °F 69% 29.83 in 6.2 mi NNE 5.8 mph - N/A   Partly Cloudy
2:50 AM 73.4 °F - 64.4 °F 73% 29.83 in 6.2 mi NNE 5.8 mph - N/A   Partly Cloudy
3:00 AM 74 °F - 64 °F 62% 29.83 in 6 mi NNE 5.8 mph - -   Scattered Clouds
3:20 AM 73.4 °F - 64.4 °F 73% 29.83 in 6.2 mi NE 4.6 mph - N/A   Partly Cloudy
3:50 AM 73.4 °F - 64.4 °F 73% 29.83 in 6.2 mi ENE 5.8 mph - N/A   Partly Cloudy
4:20 AM 73.4 °F - 64.4 °F 73% 29.83 in 6.2 mi NE 4.6 mph - N/A   Partly Cloudy
4:50 AM 73.4 °F - 64.4 °F 73% 29.80 in 6.2 mi ENE 5.8 mph - N/A   Scattered Clouds
5:20 AM 73.4 °F - 64.4 °F 73% 29.80 in 6.2 mi ENE 3.5 mph - N/A   Scattered Clouds
5:50 AM 73.4 °F - 64.4 °F 73% 29.80 in 6.2 mi ENE 3.5 mph - N/A   Scattered Clouds
6:00 AM 73 °F - 64 °F 66% 29.82 in 6 mi ENE 3.5 mph - -   Partly Cloudy
6:20 AM 73.4 °F - 64.4 °F 73% 29.80 in 6.2 mi ENE 3.5 mph - N/A   Scattered Clouds
6:50 AM 73.4 °F - 64.4 °F 73% 29.80 in 6.2 mi NE 4.6 mph - N/A   Scattered Clouds
7:20 AM 73.4 °F - 64.4 °F 73% 29.83 in 6.2 mi ENE 4.6 mph - N/A   Scattered Clouds
8:20 AM 73.4 °F - 64.4 °F 73% 29.83 in 6.2 mi ENE 4.6 mph - N/A   Scattered Clouds
8:50 AM 75.2 °F - 64.4 °F 69% 29.83 in 6.2 mi Variable 4.6 mph - N/A   Scattered Clouds
9:00 AM 75 °F - 65 °F 62% 29.83 in 6 mi ESE 4.6 mph - -   Partly Cloudy
9:20 AM 75.2 °F - 64.4 °F 69% 29.83 in 6.2 mi ENE 5.8 mph - N/A   Mostly Cloudy
9:50 AM 75.2 °F - 66.2 °F 73% 29.83 in 6.2 mi ESE 4.6 mph - N/A   Mostly Cloudy
10:20 AM 75.2 °F - 66.2 °F 73% 29.83 in 6.2 mi Variable 3.5 mph - N/A   Scattered Clouds
10:50 AM 77.0 °F - 64.4 °F 65% 29.83 in 6.2 mi Variable 6.9 mph - N/A   Scattered Clouds
11:20 AM 77.0 °F - 64.4 °F 65% 29.83 in 6.2 mi Variable 3.5 mph - N/A   Scattered Clouds
11:50 AM 77.0 °F - 62.6 °F 61% 29.80 in 6.2 mi Variable 2.3 mph - N/A   Scattered Clouds
12:00 PM 77 °F - 65 °F 57% 29.82 in 6 mi WNW 2.3 mph - -   Mostly Cloudy
12:20 PM 77.0 °F - 64.4 °F 65% 29.80 in 6.2 mi Variable 4.6 mph - N/A   Scattered Clouds
12:50 PM 78.8 °F - 62.6 °F 57% 29.80 in 6.2 mi NNE 8.1 mph - N/A   Scattered Clouds
1:20 PM 78.8 °F - 62.6 °F 57% 29.80 in 6.2 mi North 11.5 mph - N/A   Scattered Clouds
1:50 PM 80.6 °F 81.8 °F 62.6 °F 54% 29.80 in 6.2 mi Variable 8.1 mph - N/A   Mostly Cloudy
2:20 PM 80.6 °F 81.5 °F 60.8 °F 51% 29.80 in 6.2 mi NNE 11.5 mph - N/A   Mostly Cloudy
2:50 PM 78.8 °F - 62.6 °F 57% 29.80 in 6.2 mi NNE 10.4 mph - N/A   Mostly Cloudy
3:00 PM 79 °F - 63 °F 48% 29.79 in 6 mi NNE 10.4 mph - -   Mostly Cloudy
3:20 PM 78.8 °F - 62.6 °F 57% 29.77 in 6.2 mi North 13.8 mph - N/A   Mostly Cloudy
3:50 PM 80.6 °F 81.8 °F 62.6 °F 54% 29.77 in 6.2 mi NNE 11.5 mph - N/A   Mostly Cloudy
4:20 PM 80.6 °F 81.8 °F 62.6 °F 54% 29.77 in 6.2 mi NE 10.4 mph - N/A   Mostly Cloudy
4:50 PM 78.8 °F - 62.6 °F 57% 29.77 in 6.2 mi NNE 13.8 mph - N/A   Mostly Cloudy
5:20 PM 78.8 °F - 62.6 °F 57% 29.77 in 6.2 mi NNE 11.5 mph - N/A   Mostly Cloudy
5:50 PM 78.8 °F - 64.4 °F 61% 29.77 in 6.2 mi NNE 12.7 mph - N/A   Mostly Cloudy
6:00 PM 79 °F - 63 °F 49% 29.78 in 6 mi NNE 12.7 mph - -   Mostly Cloudy
6:20 PM 78.8 °F - 62.6 °F 57% 29.77 in 6.2 mi NE 12.7 mph - N/A   Mostly Cloudy
6:50 PM 78.8 °F - 62.6 °F 57% 29.77 in 6.2 mi NNE 10.4 mph - N/A   Scattered Clouds
7:20 PM 77.0 °F - 64.4 °F 65% 29.77 in 6.2 mi NNE 10.4 mph - N/A   Scattered Clouds
7:50 PM 77.0 °F - 66.2 °F 69% 29.77 in 6.2 mi NNE 9.2 mph - N/A   Mostly Cloudy
8:20 PM 77.0 °F - 64.4 °F 65% 29.77 in 6.2 mi NNE 11.5 mph - N/A   Mostly Cloudy
8:50 PM 77.0 °F - 64.4 °F 65% 29.80 in 6.2 mi NNE 10.4 mph - N/A   Scattered Clouds
9:00 PM 76 °F - 64 °F 58% 29.79 in 6 mi NNE 10.4 mph - -   Partly Cloudy
9:20 PM 77.0 °F - 64.4 °F 65% 29.80 in 6.2 mi NE 9.2 mph - N/A   Scattered Clouds
9:50 PM 77.0 °F - 66.2 °F 69% 29.80 in 6.2 mi Variable 6.9 mph - N/A   Partly Cloudy
10:20 PM 75.2 °F - 66.2 °F 73% 29.77 in 6.2 mi NNE 9.2 mph - N/A   Partly Cloudy
10:50 PM 75.2 °F - 66.2 °F 73% 29.80 in 6.2 mi NE 8.1 mph - N/A   Partly Cloudy
11:20 PM 75.2 °F - 66.2 °F 73% 29.80 in 6.2 mi NE 8.1 mph - N/A   Partly Cloudy
11:50 PM 75.2 °F - 66.2 °F 73% 29.80 in 6.2 mi NE 8.1 mph - N/A   Partly Cloudy